[[{"header":{"parameterUnit":"m.s-1","parameterCategory":1,"la1":30.2991,"la2":30.254,"lo1":-89.0895,"lo2":-89.0444,"dy":0.0017,"dx":0.0017,"nx":28,"ny":28,"refTime":"2024-10-17T09:00:00:Z","depth":0,"parameterNumber":2,"parameterNumberName":"U-component_of_WINDS"},"data":[0,0,0,0,0,0,0,0,0,0,0,0,0,0,0,0,0,0,0,0,0,0,0,0,0,0,0,0,0,0,0,0,0,0,0,0,0,0,0,0,0,0,0,0,0,0,0,0,0,0,0,0,0,0,0,0,0,0,-5.1523,-5.1524,0,-5.1546,-5.1547,-5.1547,-5.1333,-5.1327,-5.1321,-5.1316,-5.1342,-5.1348,-5.1355,0,0,0,0,0,0,0,0,0,0,0,0,0,-5.1296,-5.1302,-5.1523,-5.1524,-5.1524,-5.1546,-5.1547,-5.1547,-5.1334,-5.1327,-5.132,-5.1313,-5.134,-5.1348,-5.1355,0,0,0,0,0,0,0,0,0,0,0,0,0,-5.1365,-5.1303,-5.1523,-5.142,-5.1411,-5.1546,-5.1547,-5.1547,-5.1336,-5.1327,-5.1318,-5.131,-5.1338,-5.1347,-5.1356,-5.1592,0,0,-5.1385,-5.1389,0,0,0,0,0,0,0,0,-5.1361,-5.1374,-5.1435,-5.1428,-5.1418,-5.1428,-5.1476,-5.1562,-5.1338,-5.1365,-5.1316,-5.1305,-5.1378,-5.1384,-5.1408,-5.1593,-5.1594,-5.1386,-5.1391,-5.1395,-5.1398,0,0,0,0,0,0,0,-5.1357,-5.1371,-5.1532,-5.1436,-5.1426,-5.1373,-5.1373,-5.1491,-5.1421,-5.1362,-5.1346,-5.1352,-5.1372,-5.1399,-5.1407,-5.1594,-5.1385,-5.1394,-5.1399,-5.1403,-5.1973,-5.1982,0,0,0,0,0,0,-5.1366,-5.1369,-5.1532,-5.1533,-5.1367,-5.1385,-5.1385,-5.1434,-5.1419,-5.1408,-5.1359,-5.1342,-5.1387,-5.1396,-5.1407,-5.1681,-5.1395,-5.1404,-5.1409,-5.1963,-5.1975,-5.1985,0,0,0,0,0,0,-5.1362,-5.1382,-5.1531,-5.1447,-5.1462,-5.1398,-5.1455,-5.1439,-5.1466,-5.1417,-5.1404,-5.14,-5.1381,-5.1394,-5.1547,-5.1679,-5.1408,-5.1417,-5.1952,-5.1967,-5.198,-5.2232,0,0,0,0,0,0,-5.1356,-5.1382,-5.1471,-5.145,-5.1467,-5.1671,-5.1463,-5.1446,-5.1482,-5.1459,-5.1452,-5.1442,-5.1375,-5.1534,-5.1556,-5.1687,-5.1424,-5.194,-5.1959,-5.1976,-5.2212,-5.2253,-5.2289,0,0,0,0,0,-5.1349,-5.1542,-5.1476,-5.1497,-5.1576,-5.1679,-5.1688,-5.1606,-5.1494,-5.1582,-5.1551,-5.1443,-5.1661,-5.1552,-5.1575,-5.171,-5.1931,-5.1954,-5.1974,-5.2195,-5.2245,-5.2288,0,0,0,0,0,0,-5.1581,-5.1537,-5.1464,-5.1656,-5.1673,-5.1643,-5.1752,-5.1663,-5.1712,-5.1689,-5.1585,-5.1585,-5.1756,-5.1748,-5.1627,-5.1937,-5.1776,-5.1804,-5.1936,-5.1984,-5.2022,-5.202,-5.1432,0,0,0,0,0,-5.1654,-5.174,-5.1698,-5.1871,-5.1883,-5.1817,-5.1859,-5.1793,-5.1807,-5.1813,-5.1792,-5.181,-5.1882,-5.1932,-5.1996,-5.2209,-5.2204,-5.2314,-5.2352,-5.2384,-5.2409,-5.2521,-5.2569,-5.2056,-5.2056,-5.2055,0,0,-5.1807,-5.1793,-5.1855,-5.1917,-5.1922,-5.2015,-5.1824,-5.193,-5.1997,-5.1829,-5.1972,-5.1958,-5.1971,-5.2155,-5.2235,-5.2154,-5.2549,-5.2411,-5.2437,-5.2445,-5.2548,-5.2596,-5.264,-5.207,-5.2068,-5.2065,0,0,-5.2132,-5.2131,-5.2275,-5.2283,-5.2293,-5.2247,-5.2283,-5.2266,-5.225,-5.2391,-5.2267,-5.2346,-5.2472,-5.2486,-5.251,-5.284,-5.2742,-5.2864,-5.3065,-5.3176,-5.3216,-5.3251,-5.3369,-5.3412,-5.2888,-5.2889,-5.2889,0,-5.2321,-5.2454,-5.236,-5.2474,-5.2506,-5.2356,-5.2501,-5.2514,-5.2546,-5.2571,-5.2479,-5.2634,-5.2632,-5.2817,-5.2897,-5.2922,-5.2958,-5.2864,-5.3217,-5.3252,-5.3284,-5.3395,-5.3439,-5.2904,-5.2902,-5.2901,-5.2899,0,-5.2686,-5.278,-5.2895,-5.2928,-5.2972,-5.3101,-5.3027,-5.3083,-5.3014,-5.2979,-5.3125,-5.3117,-5.3176,-5.3215,-5.315,-5.3392,-5.3341,-5.3235,-5.3072,-5.3349,-5.3451,-5.3493,-5.2925,-5.292,-5.2915,-5.2912,0,0,-5.3159,-5.3137,-5.3181,-5.3193,-5.3192,-5.3264,-5.3386,-5.3443,-5.3493,-5.3519,-5.3619,-5.373,-5.3631,-5.3659,-5.3593,-5.3689,-5.3951,-5.3571,-5.357,-5.3642,-5.4217,-5.4297,-5.4348,-5.3885,-5.3893,-5.3899,-5.4216,0,-5.3476,-5.3683,-5.3602,-5.3816,-5.3902,-5.376,-5.3866,-5.3878,-5.3848,-5.3917,-5.3883,-5.3963,-5.3827,-5.3842,-5.3932,-5.3901,-5.4065,-5.3876,-5.3978,-5.3983,-5.398,-5.4402,-5.4487,-5.4786,-5.4256,-5.4262,-5.4267,0,-5.3873,-5.3915,-5.4137,-5.412,-5.4153,-5.4251,-5.4296,-5.4363,-5.4373,-5.4344,-5.4375,-5.4287,-5.4406,-5.4243,-5.4406,-5.4279,-5.4316,-5.4307,-5.4316,-5.4323,-5.4143,-5.4421,-5.4879,-5.4925,-5.433,-5.4325,-5.432,0,-5.4197,-5.4308,-5.4455,-5.447,-5.4454,-5.4526,-5.4523,-5.4523,-5.4563,-5.4602,-5.4627,-5.4681,-5.4711,-5.4754,-5.4684,-5.4571,-5.4857,-5.4688,-5.4837,-5.4839,-5.4904,-5.4901,-5.5376,-5.4928,-5.4927,-5.4926,-5.4925,0,-5.4559,-5.4701,-5.4599,-5.4691,-5.4845,-5.475,-5.4906,-5.4887,-5.4889,-5.4974,-5.4855,-5.4937,-5.4838,-5.4912,-5.4857,-5.5,-5.5015,-5.4995,-5.4979,-5.5006,-5.5009,-5.5029,-5.5007,-5.4938,-5.4935,-5.4933,-5.4931,0,-5.4947,-5.4884,-5.5035,-5.5008,-5.5004,-5.5119,-5.5095,-5.5178,-5.5139,-5.5248,-5.5268,-5.5207,-5.5287,-5.522,-5.5298,-5.5261,-5.5451,-5.5405,-5.5448,-5.5436,-5.5588,-5.5575,-5.6093,-5.6156,-5.5668,-5.5673,-5.5677,0,-5.5182,-5.5288,-5.5271,-5.5319,-5.5323,-5.5402,-5.5441,-5.5352,-5.5397,-5.5416,-5.5497,-5.5566,-5.5617,-5.5751,-5.5714,-5.5773,-5.5727,-5.5905,-5.5736,-5.5759,-5.573,-5.5725,-5.5735,-5.594,-5.5946,-5.595,-5.5954,0,-5.5608,-5.5571,-5.5631,-5.5682,-5.5732,-5.5767,-5.5793,-5.5839,-5.5748,-5.5805,-5.5884,-5.5924,-5.6002,-5.6073,-5.6119,-5.6115,-5.6021,-5.6008,-5.6045,-5.6074,-5.6095,-5.6086,-5.5542,-5.5996,-5.5992,-5.5989,-5.5987,-5.5985,-5.5926,-5.6013,-5.6015,-5.6086,-5.6096,-5.6123,-5.6199,-5.6169,-5.6233,-5.629,-5.6233,-5.633,-5.6336,-5.6388,-5.6396,-5.6471,-5.6397,-5.6451,-5.6465,-5.648,-5.6502,-5.6083,-5.6479,-5.6477,-5.6476,-5.6475,-5.6474,0,-5.6345,-5.6339,-5.6405,-5.6445,-5.6501,-5.6405,-5.6429,-5.6482,-5.6568,-5.6582,-5.6634,-5.6725,-5.6793,-5.6761,-5.682,-5.6885,-5.6843,-5.6904,-5.6898,-5.6899,-5.6565,-5.6526,-5.6937,-5.6937,-5.6937,-5.6937,-5.6937,-5.6936,-5.6569,-5.6711,-5.6675,-5.6821,-5.6813,-5.6906,-5.6928,-5.6952,-5.6962,-5.7069,-5.7125,-5.7103,-5.7098,-5.7156,-5.7213,-5.7202,-5.723,-5.7306,-5.728,-5.6968,-5.6923,-5.6879,-5.6843,-5.7313,-5.7313,-5.7608,-5.761,-5.7613]},{"header":{"parameterUnit":"m.s-1","parameterCategory":1,"la1":30.2991,"la2":30.254,"lo1":-89.0895,"lo2":-89.0444,"dy":0.0017,"dx":0.0017,"nx":28,"ny":28,"refTime":"2024-10-17T09:00:00:Z","depth":0,"parameterNumber":3,"parameterNumberName":"V-component_of_WINDS"},"data":[0,0,0,0,0,0,0,0,0,0,0,0,0,0,0,0,0,0,0,0,0,0,0,0,0,0,0,0,0,0,0,0,0,0,0,0,0,0,0,0,0,0,0,0,0,0,0,0,0,0,0,0,0,0,0,0,0,0,-2.9587,-2.9587,0,-2.9603,-2.9603,-2.9604,-2.9597,-2.9596,-2.9596,-2.9596,-2.961,-2.9611,-2.9612,0,0,0,0,0,0,0,0,0,0,0,0,0,-2.9546,-2.9546,-2.9587,-2.9587,-2.9587,-2.9603,-2.9603,-2.9604,-2.9597,-2.9596,-2.9596,-2.9595,-2.961,-2.9611,-2.9612,0,0,0,0,0,0,0,0,0,0,0,0,0,-2.9563,-2.9547,-2.9587,-2.9586,-2.9586,-2.9603,-2.9603,-2.9604,-2.9597,-2.9596,-2.9596,-2.9595,-2.961,-2.9611,-2.9612,-2.9631,0,0,-2.9616,-2.9616,0,0,0,0,0,0,0,0,-2.9562,-2.9564,-2.9586,-2.9586,-2.9586,-2.9597,-2.9594,-2.9613,-2.9597,-2.9593,-2.9596,-2.9595,-2.9606,-2.9608,-2.9612,-2.9631,-2.9632,-2.9616,-2.9616,-2.9617,-2.9617,0,0,0,0,0,0,0,-2.9561,-2.9564,-2.9593,-2.9586,-2.9586,-2.9583,-2.9585,-2.9598,-2.9603,-2.9593,-2.9593,-2.9595,-2.9606,-2.9611,-2.9612,-2.9632,-2.9616,-2.9617,-2.9617,-2.9618,-2.9663,-2.9664,0,0,0,0,0,0,-2.956,-2.9563,-2.9593,-2.9594,-2.9572,-2.9584,-2.9586,-2.9594,-2.9602,-2.9603,-2.9595,-2.9594,-2.9609,-2.9611,-2.9613,-2.9633,-2.9617,-2.9618,-2.9619,-2.9663,-2.9664,-2.9664,0,0,0,0,0,0,-2.9559,-2.9563,-2.9592,-2.9578,-2.9582,-2.9586,-2.9595,-2.9595,-2.96,-2.9604,-2.9605,-2.9599,-2.9609,-2.9611,-2.9626,-2.9633,-2.9618,-2.9619,-2.9662,-2.9663,-2.9664,-2.9674,0,0,0,0,0,0,-2.9558,-2.9563,-2.9571,-2.9578,-2.9582,-2.9606,-2.9595,-2.9596,-2.9602,-2.9601,-2.9608,-2.9609,-2.9609,-2.9624,-2.9627,-2.9635,-2.962,-2.9662,-2.9663,-2.9664,-2.9673,-2.9675,-2.9677,0,0,0,0,0,-2.9557,-2.9574,-2.9571,-2.9575,-2.9593,-2.9607,-2.9609,-2.9609,-2.9603,-2.961,-2.9612,-2.9608,-2.9632,-2.9625,-2.9629,-2.9637,-2.9661,-2.9662,-2.9663,-2.9672,-2.9675,-2.9677,0,0,0,0,0,0,-2.9567,-2.9575,-2.9572,-2.9593,-2.9599,-2.9605,-2.9615,-2.9612,-2.962,-2.9619,-2.9618,-2.962,-2.9634,-2.9637,-2.9629,-2.9653,-2.9645,-2.9647,-2.9651,-2.9653,-2.9655,-2.9654,-2.9621,0,0,0,0,0,-2.9572,-2.9583,-2.9589,-2.9606,-2.9609,-2.9611,-2.9617,-2.9617,-2.9623,-2.9625,-2.9629,-2.9634,-2.9642,-2.9648,-2.9656,-2.9673,-2.9673,-2.968,-2.9682,-2.9684,-2.9685,-2.9691,-2.9694,-2.9668,-2.9668,-2.9668,0,0,-2.9582,-2.9587,-2.9595,-2.9608,-2.9613,-2.9623,-2.9614,-2.9626,-2.9632,-2.9627,-2.964,-2.9643,-2.9648,-2.9663,-2.967,-2.9666,-2.9692,-2.9685,-2.9687,-2.9687,-2.9693,-2.9695,-2.9697,-2.9669,-2.9669,-2.9669,0,0,-2.9605,-2.9611,-2.9625,-2.9629,-2.9636,-2.9637,-2.964,-2.9646,-2.9647,-2.9661,-2.9656,-2.9663,-2.9678,-2.9682,-2.9685,-2.9705,-2.9701,-2.9708,-2.9718,-2.9724,-2.9726,-2.9728,-2.9733,-2.9735,-2.971,-2.971,-2.971,0,-2.9616,-2.9632,-2.9632,-2.9643,-2.9648,-2.9643,-2.9655,-2.9659,-2.9668,-2.9671,-2.9667,-2.9683,-2.9687,-2.9701,-2.9706,-2.971,-2.9711,-2.9707,-2.9726,-2.9728,-2.9729,-2.9734,-2.9736,-2.971,-2.971,-2.971,-2.971,0,-2.9644,-2.9655,-2.9665,-2.9673,-2.9679,-2.9691,-2.969,-2.9696,-2.9694,-2.9694,-2.9706,-2.971,-2.9717,-2.9721,-2.972,-2.9734,-2.9731,-2.9726,-2.9718,-2.9732,-2.9737,-2.9739,-2.9711,-2.9711,-2.9711,-2.9711,0,0,-2.9676,-2.9682,-2.9685,-2.9688,-2.9693,-2.9701,-2.9711,-2.9718,-2.9722,-2.9728,-2.9735,-2.9746,-2.9741,-2.9745,-2.9743,-2.9749,-2.9761,-2.9743,-2.9743,-2.9745,-2.9775,-2.9777,-2.978,-2.9758,-2.9759,-2.9759,-2.9774,0,-2.9698,-2.9716,-2.9715,-2.9732,-2.974,-2.9733,-2.9742,-2.9745,-2.9745,-2.9751,-2.9751,-2.9758,-2.9752,-2.9754,-2.9759,-2.9759,-2.9767,-2.9758,-2.9763,-2.9764,-2.9762,-2.9783,-2.9786,-2.98,-2.9775,-2.9776,-2.9776,0,-2.9727,-2.9732,-2.975,-2.9751,-2.9754,-2.9762,-2.9767,-2.9773,-2.9776,-2.9775,-2.9778,-2.9775,-2.9782,-2.9774,-2.9784,-2.9777,-2.9779,-2.9779,-2.9779,-2.978,-2.977,-2.9782,-2.9804,-2.9806,-2.9779,-2.9779,-2.9779,0,-2.9745,-2.9757,-2.9768,-2.9771,-2.9774,-2.9779,-2.978,-2.9782,-2.9785,-2.9789,-2.979,-2.9795,-2.9797,-2.98,-2.9797,-2.9792,-2.9806,-2.9798,-2.9804,-2.9804,-2.9808,-2.9808,-2.983,-2.9811,-2.9811,-2.981,-2.981,0,-2.9769,-2.978,-2.9777,-2.9783,-2.9794,-2.9791,-2.9801,-2.9801,-2.9802,-2.9808,-2.9803,-2.9807,-2.9804,-2.9808,-2.9805,-2.9812,-2.9814,-2.9812,-2.9811,-2.9812,-2.9812,-2.9813,-2.9812,-2.9811,-2.9811,-2.9811,-2.9811,0,-2.9793,-2.9791,-2.9802,-2.9803,-2.9803,-2.9811,-2.9811,-2.9816,-2.9815,-2.9821,-2.9823,-2.9821,-2.9825,-2.9822,-2.9827,-2.9825,-2.9833,-2.9831,-2.9832,-2.9832,-2.9837,-2.9836,-2.986,-2.9863,-2.9843,-2.9843,-2.9843,0,-2.9808,-2.9815,-2.9816,-2.9819,-2.982,-2.9826,-2.9829,-2.9825,-2.9828,-2.983,-2.9834,-2.9838,-2.9841,-2.9847,-2.9845,-2.9848,-2.9845,-2.9853,-2.9846,-2.9845,-2.9844,-2.9843,-2.9843,-2.9855,-2.9855,-2.9855,-2.9856,0,-2.9833,-2.9832,-2.9836,-2.984,-2.9843,-2.9846,-2.9848,-2.985,-2.9846,-2.9849,-2.9853,-2.9855,-2.9859,-2.9862,-2.9863,-2.9863,-2.9858,-2.9858,-2.9859,-2.986,-2.986,-2.9858,-2.9835,-2.9857,-2.9857,-2.9857,-2.9857,-2.9857,-2.9852,-2.9857,-2.9858,-2.9862,-2.9863,-2.9864,-2.9869,-2.9867,-2.9871,-2.9873,-2.987,-2.9875,-2.9874,-2.9875,-2.9875,-2.9878,-2.9874,-2.9877,-2.9877,-2.9877,-2.9877,-2.986,-2.9878,-2.9878,-2.9878,-2.9878,-2.9878,0,-2.9876,-2.9875,-2.988,-2.9882,-2.9885,-2.988,-2.9881,-2.9883,-2.9887,-2.9887,-2.9889,-2.9892,-2.9894,-2.9892,-2.9893,-2.9895,-2.9893,-2.9895,-2.9895,-2.9894,-2.9881,-2.9879,-2.9897,-2.9897,-2.9897,-2.9897,-2.9897,-2.9897,-2.9889,-2.9897,-2.9894,-2.9902,-2.9901,-2.9905,-2.9906,-2.9906,-2.9906,-2.991,-2.9911,-2.991,-2.9908,-2.9908,-2.9909,-2.9908,-2.9909,-2.9912,-2.991,-2.9898,-2.9896,-2.9894,-2.9892,-2.9912,-2.9912,-2.9923,-2.9923,-2.9923]}]]